Location: Astronomy Club of Akron Observatory
(40.9700°N, 81.5606°W)
Time: 14:01:07
(UTC-04:00)

Daily predictions for brighter satellites

Satellite Brightness Start Highest point End
(mag) Time Altitude Azimuth Time Altitude Azimuth Time Altitude Azimuth
Cosmos 1934 Rocket 4.3 20:27:39 10° SSE 20:33:22 44° E 20:39:12 10° NNE
Meteor 2-4 Rocket 3.9 20:28:04 10° N 20:33:52 63° ENE 20:39:43 10° SSE
Cosmos 1400 Rocket 3.9 20:31:22 10° SSW 20:35:23 52° WNW 20:39:23 10° N
Cosmos 1315 Rocket 2.8 20:31:47 10° S 20:35:46 87° E 20:39:50 10° N
Cosmos 2278 4.4 20:34:17 10° SSE 20:39:16 33° ESE 20:44:17 10° NE
Cosmos 1697 Rocket 4.4 20:38:38 10° ESE 20:40:07 11° E 20:41:36 10° E
Tiangong 1 1.0 20:37:49 10° WSW 20:40:56 85° SSE 20:44:02 10° ENE
DELTA 2 R/B (1) 3.6 20:37:22 10° W 20:42:57 78° S 20:48:31 10° E
USA 186 2.1 20:45:31 10° SSE 20:48:30 41° ENE 20:51:21 10° N
OTV 4 0.9 20:46:53 10° WSW 20:49:45 47° S 20:52:22 12° ESE
H-2A R/B 2.9 20:46:29 10° SSE 20:50:17 58° ENE 20:54:09 10° N
Meteor 1-23 Rocket 4.2 20:45:19 10° N 20:50:59 81° E 20:56:41 10° SSE
CZ-4B DEB 3.0 20:48:27 10° S 20:51:43 75° WSW 20:55:01 10° NNW
Cosmos 2369 4.2 20:46:58 10° S 20:52:06 37° ESE 20:57:19 10° NE
Delta 2 Rocket 4.5 20:47:37 10° WSW 20:53:03 48° S 20:57:38 12° ESE
ATLAS CENTAUR R/B 3.7 20:49:03 10° WSW 20:53:40 35° NW 20:58:12 10° NNE
EP 2 4.1 20:51:20 10° SSW 20:53:54 69° ESE 20:56:40 10° NE
Cosmos 1544 Rocket 3.5 20:51:03 10° S 20:55:23 70° E 20:59:47 10° NNE
Iridium 4 Rocket 4.4 20:51:00 10° NNE 20:55:25 28° ENE 20:59:31 10° SE
Cosmos 1939 Rocket 4.4 20:52:34 11° ESE 20:55:30 21° ENE 20:58:37 10° NNE
OAO 2 Rocket 4.4 20:56:17 10° SW 21:00:30 27° SSE 21:03:59 14° ESE
Cosmos 968 Rocket 4.5 20:58:13 10° NNW 21:03:10 48° WSW 21:08:03 10° S
CZ-2D R/B 3.3 21:01:22 10° S 21:05:13 81° W 21:09:07 10° NNW
NOSS 2-1 (D) 3.9 21:05:05 10° SW 21:08:55 62° NW 21:13:17 10° NNE
NOSS 2-1 (C) 3.9 21:06:06 10° SW 21:09:56 62° NW 21:14:20 10° NNE
Hubble Space Telescope 3.0 21:08:18 10° SW 21:10:13 13° S 21:12:07 10° SSE
ERS-1 Rocket 3.4 21:07:32 12° SE 21:11:56 43° ENE 21:16:41 10° N
Cosmos 1821 Rocket 4.2 21:07:19 10° SSW 21:13:25 74° W 21:19:32 10° N
Cosmos 1605 Rocket 4.0 21:09:57 10° S 21:16:15 69° E 21:22:30 10° NNE
Cosmos 1346 Rocket 2.7 21:13:22 10° N 21:17:20 89° ESE 21:21:18 10° S
RESURS DK-1 4.4 21:19:39 10° NNE 21:22:00 15° NE 21:23:22 13° ENE
Cosmos 2227 Rocket 2.2 21:22:17 10° NNW 21:27:58 78° ENE 21:32:24 17° SSE
YAOGAN 11 4.1 21:26:24 14° SSE 21:30:13 73° ENE 21:34:42 10° N
ALOS 3.6 21:28:27 10° SSW 21:32:49 39° W 21:37:13 10° NNW
Cosmos 1500 3.6 21:34:19 29° SE 21:35:35 40° E 21:39:08 10° NNE
BREEZE-M DEB (TANK) 4.2 21:21:00 10° SW 21:38:41 64° SSE 21:42:56 15° ENE
Cosmos 1656 3.7 21:35:08 10° S 21:40:36 53° ESE 21:46:01 10° NNE
Cosmos 2082 3.7 21:34:57 10° NNW 21:40:36 88° WSW 21:44:33 20° SSE
Cosmos 2297 Rocket 2.1 21:38:09 10° NNW 21:43:51 76° ENE 21:47:09 26° SSE
Cosmos 2123 Rocket 4.5 21:38:48 10° NNW 21:44:53 61° W 21:50:56 10° S
USA 215 4.3 21:42:02 16° E 21:46:39 36° NNE 21:52:29 10° NW
Lacrosse 5 3.0 21:44:50 10° NNW 21:49:25 33° NNE 21:51:36 23° ENE
H-2A R/B 2.1 21:49:23 40° ESE 21:50:30 53° ENE 21:54:32 10° N
Cosmos 1340 4.1 21:48:54 10° NNE 21:51:29 23° ENE 21:51:29 23° ENE
SPOT 5 3.2 21:52:32 34° SE 21:54:24 52° ENE 21:59:11 10° N
deb Chang Zheng 4 3.6 21:50:40 10° NNE 21:55:06 60° ESE 21:57:04 31° S
Cosmos 1626 Rocket 3.8 21:51:06 10° NNW 21:55:30 68° W 21:58:22 21° S
Cosmos 1515 3.6 21:54:04 10° N 21:57:56 86° W 21:59:10 42° S
Cosmos 2298 Rocket 4.0 21:53:33 10° NNW 21:58:52 70° ENE 22:00:55 38° SE
Cosmos 1975 3.4 21:56:24 10° SSW 22:00:26 58° W 22:04:31 10° N
Cosmos 1459 Rocket 3.9 21:59:01 22° SSE 22:02:53 63° E 22:08:55 10° NNE
Cosmos 1602 Rocket 4.2 21:59:04 10° NNW 22:03:26 55° W 22:06:22 20° SSW
NOSS 3-4 (A) 4.5 21:58:43 10° NW 22:05:29 50° WSW 22:10:47 18° S
NOSS 3-4 (C) 4.5 21:58:50 10° NW 22:05:37 50° WSW 22:10:52 19° S
Cosmos 1743 3.1 22:06:26 48° ENE 22:06:26 48° ENE 22:09:45 10° NNE
Nimbus 7 Rocket 4.3 22:00:48 10° NNE 22:06:52 74° ESE 22:12:29 12° S
H-2A R/B 3.5 22:10:13 21° ENE 22:10:13 21° ENE 22:13:46 10° NNE
YAOGAN 6 3.0 22:12:12 52° NE 22:12:12 52° NE 22:15:24 10° N
Cosmos 1461 3.9 22:08:56 10° NW 22:12:41 37° WSW 22:13:43 31° SSW
Cosmos 1066 Rocket 4.2 22:07:42 10° N 22:13:22 86° W 22:16:06 33° S
Lacrosse 5 rocket 1.0 22:09:45 10° NW 22:13:22 72° WSW 22:13:22 72° WSW
Envisat 3.3 22:11:14 27° S 22:14:00 64° WSW 22:19:04 10° NNW
Cosmos 2098 Rocket 4.5 22:14:26 39° SE 22:16:01 44° E 22:21:54 10° NNE
MetOp-A 4.0 22:15:53 46° SSE 22:17:31 78° ENE 22:22:53 10° N
Tiangong 1 2.2 22:14:28 10° W 22:16:48 43° NW 22:16:48 43° NW
Cosmos 1937 Rocket 3.4 22:14:48 10° NNW 22:20:04 71° ENE 22:21:02 57° SE
Cosmos 1697 Rocket 2.6 22:17:31 10° SSW 22:23:10 88° ESE 22:28:51 10° NNE
Cosmos 2058 Rocket 4.3 22:25:44 30° NE 22:25:44 30° NE 22:28:28 10° NNE
Cosmos 1802 Rocket 3.9 22:20:59 29° S 22:24:26 80° E 22:30:54 10° N
OTV 4 3.2 22:23:15 10° WSW 22:23:53 14° WSW 22:23:53 14° WSW
Cosmos 2150 Rocket 4.0 22:20:56 10° NNW 22:26:05 77° WSW 22:27:17 53° S
SL-16 R/B 4.4 22:29:57 11° ENE 22:29:57 11° ENE 22:30:13 10° NE
SPOT 1/Viking Rocket 3.5 22:28:06 60° ESE 22:28:39 64° ENE 22:33:49 10° N
DELTA 2 R/B (1) 3.5 22:23:48 10° W 22:29:17 63° SSW 22:29:48 60° SSE
Cosmos 1939 Rocket 4.5 22:28:30 23° SW 22:30:14 31° W 22:33:58 10° NNW
NOAA 11 4.2 22:29:44 58° ESE 22:30:24 63° ENE 22:35:49 10° N
SL-08 R/B 4.4 22:30:44 52° SE 22:32:01 64° E 22:38:10 10° NNE
ASTEX 1 3.3 22:27:18 10° N 22:32:20 87° E 22:33:04 66° S
Cosmos 2084 3.5 22:29:39 10° NW 22:33:22 72° NW 22:33:22 72° NW
SL-08 RB Rocket 4.1 22:35:12 51° NE 22:35:12 51° NE 22:39:16 10° N
Cosmos 990 Rocket 3.8 22:32:18 10° NNW 22:37:35 74° ENE 22:37:48 73° E
Cosmos 1606 Rocket 3.6 22:38:13 71° N 22:38:13 71° N 22:42:11 10° N
Terra 3.2 22:40:15 27° NE 22:40:15 27° NE 22:43:23 10° N
OAO 2 Rocket 4.5 22:39:57 10° WSW 22:42:57 31° SW 22:42:57 31° SW
Cosmos 1980 Rocket 2.0 22:44:07 69° S 22:44:48 81° ESE 22:50:31 10° NNE
CZ-4B R/B 3.7 22:40:21 10° NNE 22:44:01 51° NE 22:44:01 51° NE
Cosmos 2016 Rocket 3.9 22:43:28 45° SSW 22:45:32 84° W 22:51:45 10° N
ARGOS 3.0 22:49:32 82° SSE 22:49:47 90° W 22:55:12 10° NNW
Cosmos 1898 Rocket 4.4 22:48:54 10° NW 22:53:50 40° WSW 22:54:53 36° SW
Meteor 1-21 4.5 22:50:14 10° NNW 22:55:57 67° W 22:56:53 57° SW
Cosmos 1125 Rocket 4.2 22:55:07 10° N 22:59:15 43° NE 22:59:15 43° NE
RESURS DK-1 3.6 22:56:22 10° NNW 22:59:18 41° WNW 22:59:18 41° WNW
Cosmos 1726 Rocket 4.4 23:03:16 47° NW 23:03:16 47° NW 23:06:48 10° N
Cosmos 1763 Rocket 3.7 23:04:53 65° NNW 23:04:53 65° NNW 23:09:24 10° NNE
Tsikada Rocket 3.9 23:05:46 10° N 23:12:13 84° W 23:12:34 80° SSW
Cosmos 1864 Rocket 4.4 23:12:32 75° WSW 23:12:54 78° W 23:19:04 10° N
Cosmos 2263 Rocket 3.4 23:10:34 10° N 23:14:41 30° NE 23:14:41 30° NE
Cosmos 2322 Rocket 3.6 23:18:34 26° NE 23:18:34 26° NE 23:21:04 10° NNE
Cosmos 967 Rocket 4.4 23:12:05 10° NNW 23:18:16 78° W 23:18:16 78° W
Cosmos 2360 4.4 23:19:45 67° NNW 23:19:45 67° NNW 23:24:52 10° NNE
Cosmos 841 Rocket 4.1 23:24:39 53° NW 23:24:39 53° NW 23:29:17 10° N
Milstar 3 Cent rocket 4.3 23:12:20 10° W 23:26:13 37° SSW 23:26:27 37° SSW
USA 215 3.1 23:29:23 82° WSW 23:29:23 82° WSW 23:35:49 10° NW
Lacrosse 5 3.2 23:27:40 10° NW 23:30:48 34° WNW 23:30:48 34° WNW
H-2A R/B 3.3 23:50:51 35° NW 23:50:51 35° NW 23:54:03 10° NNW
